Flag for Germany Weather past 2 weeks in Meissen, Saxony, Germany

Now
30 °F

Light snow. Ice fog.


Feels Like: 24 °F
Forecast: 20 / 29 °F
Wind: 6 mph from Northwest

Location: Dresden-Klotzsche

Current Time: Dec 26, 2014 at 12:34:33 PM

Latest Report: Dec 26, 2014 at 11:50 AM


Visibility: 2 mi

Pressure: 30.27 "Hg

Humidity: 93%

Dew point: 28 °F

Location of MeissenLocation

Historic Weather in Meissen — Graph

°F

Meissen temperature yesterday

Maximum temperature yesterday: 41 °F (at 12:20 AM)
Minimum temperature yesterday: 34 °F (at 11:50 PM)
Average temperature yesterday: 39 °F

Past Weeks' High & Low Weather Summary

 TemperatureHumidityPressure
High54 °F (Dec 18, 10:50 PM)100% (Dec 13, 8:50 AM)30.30 "Hg (Dec 13, 8:50 AM)
Low30 °F (Dec 26, 8:50 AM)62% (Dec 12, 4:50 PM)29.53 "Hg (Dec 12, 10:20 PM)
Average43 °F82%29.92 "Hg
* Reported Dec 11 11:11 AM — Dec 26 11:20 AM, Meissen, Weather by CustomWeather, © 2014

Note: Actual official high and low records may vary slightly from our data, if they occured in-between our weather recording intervals... More about our weather records

Advertising

Meissen weather history for previous 24 hours

 ConditionsComfort  
Time TempWeatherWind HumidityBarometerVisibility
11:20 AM
Dec 26
30 °FSnow flurries. Ice fog.6 mph100%30.27 "Hg2 mi
10:50 AM32 °FSnow flurries. Ice fog.6 mph100%30.27 "Hg2 mi
10:20 AM32 °FLight snow. Ice fog.6 mph100%30.27 "Hg2 mi
9:50 AM30 °FLight snow. Ice fog.2 mph100%30.27 "Hg1 mi
9:20 AM30 °FLight snow. Ice fog.2 mph100%30.27 "Hg1 mi
8:50 AM30 °FHeavy snow. Ice fog.2 mph100%30.27 "Hg1 mi
8:20 AM32 °FHeavy snow. Ice fog.6 mph100%30.27 "Hg1 mi
7:50 AM32 °FLight snow. Partly cloudy.3 mph100%30.27 "Hg4 mi
7:20 AM32 °FLight snow. Passing clouds.5 mph100%30.24 "Hg5 mi
6:50 AM32 °FLight snow. Passing clouds.5 mph93%30.24 "HgN/A
6:20 AM32 °FLight snow. Partly cloudy.6 mph100%30.24 "HgN/A
5:50 AM32 °FPartly cloudy.9 mph100%30.24 "HgN/A
5:20 AM32 °FPassing clouds.8 mph93%30.24 "HgN/A
4:50 AM32 °FPassing clouds.9 mph93%30.24 "HgN/A
4:20 AM32 °FPassing clouds.10 mph93%30.21 "HgN/A
3:50 AM32 °FPassing clouds.10 mph93%30.21 "HgN/A
3:20 AM32 °FPassing clouds.12 mph100%30.21 "HgN/A
2:50 AM32 °FPassing clouds.10 mph93%30.21 "HgN/A
2:20 AM32 °FPassing clouds.12 mph93%30.18 "Hg4 mi
1:50 AM32 °FLight snow. Ice fog.13 mph100%30.15 "Hg3 mi
1:20 AM32 °FSnow. Ice fog.13 mph100%30.12 "Hg2 mi
12:50 AM32 °FLight snow. Ice fog.16 mph100%30.12 "Hg2 mi
12:20 AM32 °FLight snow. Ice fog.15 mph100%30.09 "Hg2 mi
11:50 PM
Dec 25
34 °FLight snow. Passing clouds.14 mph93%30.07 "Hg4 mi
11:20 PM36 °FLight rain. Passing clouds.13 mph87%30.07 "HgN/A
10:50 PM36 °FSnow flurries. Partly cloudy.14 mph87%30.07 "HgN/A
10:20 PM37 °FSprinkles. Partly cloudy.17 mph81%30.07 "HgN/A
9:50 PM39 °FPartly cloudy.16 mph70%30.04 "HgN/A
9:20 PM37 °FClear.15 mph81%30.07 "Hg10 mi
8:50 PM37 °FClear.14 mph81%30.07 "Hg10 mi
8:20 PM37 °FClear.14 mph81%30.07 "Hg10 mi
7:50 PM37 °FClear.12 mph81%30.07 "Hg10 mi
7:20 PM37 °FClear.10 mph81%30.07 "Hg10 mi
6:50 PM37 °FPassing clouds.10 mph81%30.07 "HgN/A
6:20 PM37 °FPartly cloudy.10 mph87%30.07 "HgN/A
5:50 PM37 °FClear.9 mph87%30.04 "Hg10 mi
5:20 PM37 °FPassing clouds.12 mph87%30.04 "HgN/A
4:20 PM41 °FPartly cloudy.15 mph76%30.04 "HgN/A
3:50 PM41 °FPartly sunny.14 mph70%30.04 "HgN/A
3:20 PM41 °FLight rain. Broken clouds.12 mph70%30.04 "HgN/A
2:50 PM41 °FPartly sunny.14 mph70%30.04 "HgN/A
2:20 PM41 °FPartly sunny.13 mph70%30.04 "HgN/A
1:50 PM41 °FBroken clouds.15 mph70%30.04 "HgN/A
1:20 PM41 °FBroken clouds.15 mph70%30.04 "HgN/A
12:50 PM41 °FPartly sunny.18 mph70%30.04 "HgN/A
12:20 PM41 °FPartly sunny.14 mph70%30.04 "HgN/A
Weather by CustomWeather, © 2014

See weather overviewHow to use our weather pages